Regional Weather Roundup
Issued by NWS New Orleans/Baton Rouge, LA

Home | Current Version | Previous Version | Graphics & Text | Print | Product List | Glossary On
Versions: 1 2 3 4 5 6 7 8 9 10 11 12 13 14 15 16 17 18 19 20 21 22 23 24 25 26 27 28 29 30 31 32 33 34 35 36 37 38 39 40 41 42 43 44 45 46 47 48 49 50
721
ASUS44 KLIX 210101
RWRLIX
NEW ORLEANS REGIONAL WEATHER ROUNDUP
NATIONAL WEATHER SERVICE NEW ORLEANS LA
800 PM CDT MON OCT 20 2014

NOTE: "FAIR" INDICATES FEW OR NO CLOUDS BELOW 12,000 FEET WITH NO
      SIGNIFICANT WEATHER AND/OR OBSTRUCTIONS TO VISIBILITY.
      SKY/WX - SKY CONDITION AND SIGNIFICANT WEATHER.
      TMP - AIR TEMPERATURE.     DP    - DEWPOINT TEMPERATURE.
      RH  - RELATIVE HUMIDITY.   PRES  - PRESSURE.
      HI  - HEAT INDEX.          WCI   - WIND CHILL INDEX.

*  THESE STATIONS ARE NOT NWS OR FAA STATIONS AND ARE NOT UNDER
   NWS QUALITY CONTROL.

LAZ038-040-048-061>063-065>067-069-210200-
SOUTHEAST LOUISIANA

CITY           SKY/WX    TMP DP  RH WIND       PRES   REMARKS
N.O. AUDUBON   NOT AVBL
N.O. INTL ARPT PTCLDY    70  54  56 N6        30.01R
N.O. LAKEFRONT CLEAR     72  56  57 N7        30.01S
N.O. DOWNTOWN*   N/A     73  52  46 CALM      30.01S
SLIDELL        CLEAR     61  57  87 CALM      30.00S
BATON ROUGE    PTCLDY    62  58  86 CALM      30.02R
BOOTHVILLE     CLEAR     72  65  78 NE6       30.00S
BELLE CHASSE   PTCLDY    62  56  80 CALM      30.00S
BOGALUSA*        N/A     60  53  76 CALM      30.03R
NEW ROADS*       N/A     63  57  80 CALM      30.02S
GONZALES*        N/A     61  61 100 CALM      30.01S
HAMMOND*       NOT AVBL
HOUMA*         CLEAR     64  56  75 NE5       30.00R
PORT FOURCHON* CLEAR     73  64  73 NE8       30.02S

$$

MSZ070-080>082-210200-
SOUTHERN MISSISSIPPI

CITY           SKY/WX    TMP DP  RH WIND       PRES   REMARKS
MCCOMB         PTCLDY    60  53  77 CALM      30.03R
GULFPORT       CLEAR     63  55  75 CALM      29.99S
BILOXI         PTCLDY    69  55  61 N1        30.00S
PASCAGOULA     PTCLDY    56  52  86 CALM      30.00S
STENNIS ARPT*  CLEAR     57  54  88 CALM      30.01S

$$

COASTAL OBSERVATIONS
LAKE AND NEARSHORE STATIONS

STATION/POSITION TIME  TEMP    WIND        PRES    WAVE
                       AIR SEA DIR/SP/G            HT/PER
                 (UTC) (F)     (DEG/KT/KT) (MB)    (FT/S)
PASCAGOULA       0000   68     320/  5/  6 1015.3
WAVELAND YACHT   0000   71     250/  2/  2 1015.3
GRAND ISLE       0000   72 78   60/  7/  9 1016.0
SOUTHWEST PASS   0000   76 84              1015.6
NEW CANAL        0000   74 73  360/  5/  6 1016.4
SHELL BEACH      0000   73 70   70/  5/  5 1016.0

OFFSHORE STATIONS

STATION/POSITION TIME  TEMP    WIND        PRES    WAVE
                       AIR SEA DIR/SP/G            HT/PER
                 (UTC) (F)     (DEG/KT/KT) (MB)    (FT/S)
64 S DAUPHIN ISL 0030   74 80   30/  8/ 10 1015.7    1/ 5

$$




USA.gov is the U.S. government's official web portal to all federal, state and local government web resources and services.